Weather History for Springfield, IL

Change the Weather History Date:

Sunday, May 12, 2013

  Actual Average Record
Temperature  
Mean Temperature 48 °F 62 °F  
Max Temperature 60 °F 74 °F 92 °F (1956)
Min Temperature 36 °F 51 °F 33 °F (1960)
Degree Days  
Heating Degree Days 17 5  
Month to date heating degree days 70  
Since 1 July heating degree days 5415  
Cooling Degree Days 0 2  
Month to date cooling degree days 8 18  
Year to date cooling degree days 22 38  
Moisture  
Dew Point 31 °F    
Average Humidity 56    
Maximum Humidity 82    
Minimum Humidity 30    
Precipitation  
Precipitation 0.00 in 0.14 in 2.98 in (2002)
Month to date precipitation 4.00 1.60  
Year to date precipitation 18.12 11.37  
Snow  
Snow 0.00 in 0.00 in 0.00 in ()
Month to date snowfall 0.0 0.0  
Since 1 July snowfall 33.1 20.9  
Snow Depth 0.00 in    
Sea Level Pressure  
Sea Level Pressure 30.18 in    
Wind  
Wind Speed 9 mph (WNW)    
Max Wind Speed 23 mph    
Max Gust Speed 37 mph    
Visibility 10 miles    
Events      
T = Trace of Precipitation, MM = Missing Value Source: NWS Daily Summary

Daily Weather History Graph

Daily Weather History Graph

Search for Another Location

Airport:

Trip Planner

Search our weather history database for the weather conditions in past years. The results will help you decide how hot, cold, wet, or windy it might be!

Date:

Astronomy

May. 12, 2013 Rise Set
Actual Time 5:46 AM CDT 8:04 PM CDT
Civil Twilight 5:16 AM CDT 8:34 PM CDT
Nautical Twilight 4:38 AM CDT 9:12 PM CDT
Astronomical Twilight 3:57 AM CDT 9:53 PM CDT
Moon 7:41 AM CDT (5/12) 10:31 PM CDT (5/12)
Length of Visible Light 15h 18m
Length of Day
14h 17m
Waxing Crescent, 7% of the Moon is Illuminated
May 12
Waxing Crescent
May 17
First Quarter
May 24
Full
May 31
Last Quarter
Jun 8
New

Hourly Weather History & Observations

Time (CDT) Temp. Windchill Dew Point Humidity Pressure Visibility Wind Dir Wind Speed Gust Speed Precip Events Conditions
12:52 AM 43.0 °F 38.8 °F 33.1 °F 68% 30.15 in 10.0 mi West 6.9 mph - N/A   Clear
1:52 AM 39.9 °F 35.8 °F 33.1 °F 77% 30.15 in 10.0 mi WNW 5.8 mph - N/A   Clear
2:52 AM 41.0 °F 37.1 °F 33.1 °F 73% 30.15 in 10.0 mi WNW 5.8 mph - N/A   Clear
3:52 AM 39.9 °F 36.7 °F 32.0 °F 73% 30.15 in 10.0 mi WNW 4.6 mph - N/A   Clear
4:52 AM 37.9 °F 34.4 °F 32.0 °F 79% 30.16 in 10.0 mi West 4.6 mph - N/A   Clear
5:52 AM 37.0 °F 31.6 °F 32.0 °F 82% 30.17 in 10.0 mi West 6.9 mph - N/A   Clear
6:52 AM 41.0 °F 38.0 °F 33.1 °F 73% 30.19 in 10.0 mi West 4.6 mph - N/A   Clear
7:52 AM 46.0 °F 42.5 °F 33.1 °F 61% 30.20 in 10.0 mi NNW 6.9 mph - N/A   Clear
8:52 AM 48.9 °F - 28.9 °F 46% 30.22 in 10.0 mi NNW 12.7 mph - N/A   Clear
9:52 AM 51.1 °F - 28.0 °F 41% 30.22 in 10.0 mi NNW 16.1 mph 21.9 mph N/A   Clear
10:52 AM 52.0 °F - 27.0 °F 38% 30.23 in 10.0 mi WNW 20.7 mph 26.5 mph N/A   Clear
11:52 AM 55.0 °F - 28.0 °F 35% 30.22 in 10.0 mi NW 15.0 mph 24.2 mph N/A   Clear
12:52 PM 55.9 °F - 28.0 °F 34% 30.22 in 10.0 mi NW 16.1 mph 23.0 mph N/A   Clear
1:52 PM 55.9 °F - 27.0 °F 33% 30.19 in 10.0 mi WNW 16.1 mph 23.0 mph N/A   Clear
2:52 PM 57.9 °F - 30.0 °F 35% 30.18 in 10.0 mi NW 11.5 mph 17.3 mph N/A   Clear
3:52 PM 59.0 °F - 28.9 °F 32% 30.16 in 10.0 mi NW 13.8 mph - N/A   Clear
4:52 PM 59.0 °F - 28.0 °F 31% 30.15 in 10.0 mi WNW 11.5 mph 18.4 mph N/A   Clear
5:52 PM 59.0 °F - 28.0 °F 31% 30.15 in 10.0 mi NW 11.5 mph - N/A   Clear
6:52 PM 57.0 °F - 27.0 °F 32% 30.14 in 10.0 mi NW 12.7 mph - N/A   Clear
7:52 PM 54.0 °F - 30.9 °F 41% 30.14 in 10.0 mi WNW 5.8 mph - N/A   Clear
8:52 PM 48.9 °F - 36.0 °F 61% 30.16 in 10.0 mi West 3.5 mph - N/A   Clear
9:52 PM 46.9 °F - 37.0 °F 68% 30.18 in 10.0 mi Calm Calm - N/A   Clear
10:52 PM 45.0 °F - 37.0 °F 74% 30.17 in 10.0 mi Calm Calm - N/A   Clear
11:52 PM 43.0 °F 40.3 °F 36.0 °F 76% 30.17 in 10.0 mi WSW 4.6 mph - N/A   Clear